EW2690 Weather Reports


Display with metric or nautical units.
time (UTC)temp
F
wind
direction
speed
MPH
gust
MPH
rain 1hr
in
rain 24hr
in
rain mn
in
humidity
%
barometer
mb
20260506110332 47 311 0.0 4.0 0.01 1.50 0.23 99 1018.3
20260506110034 47 355 2.0 4.0 0.02 1.50 0.23 99 1018.5
20260506103015 47 306 0.0 2.0 0.03 1.49 0.22 99 1017.6
20260506100315 47 306 0.0 4.0 0.04 1.49 0.22 99 1017.8
20260506100027 47 304 2.0 6.0 0.03 1.48 0.21 99 1018.1
20260506093053 47 317 1.0 2.0 0.04 1.46 0.19 99 1018.0
20260506090417 47 317 1.0 1.0 0.05 1.45 0.18 99 1017.3
20260506090028 47 317 0.0 1.0 0.05 1.45 0.18 99 1017.6
20260506083033 47 316 1.0 3.0 0.04 1.42 0.15 99 1018.4
20260506080328 47 313 1.0 3.0 0.03 1.40 0.13 99 1018.1
20260506080111 47 314 0.0 3.0 0.03 1.40 0.13 99 1018.1
20260506073045 47 355 1.0 3.0 0.02 1.38 0.11 99 1018.0
20260506070318 47 321 2.0 3.0 0.02 1.37 0.10 99 1017.6
20260506070121 47 319 2.0 3.0 0.02 1.37 0.10 99 1017.7
20260506060354 47 5 0.0 1.0 0.03 1.35 0.08 99 1017.9
20260506050332 48 5 1.0 2.0 0.04 1.32 0.05 99 1018.8
20260506050118 48 5 1.0 3.0 0.04 1.32 0.05 99 1018.8
20260506043054 48 302 1.0 3.0 0.08 1.30 0.03 99 1019.1
20260506040354 49 313 1.0 4.0 0.14 1.28 0.01 99 1019.3
20260506040121 49 313 2.0 4.0 0.13 1.27 0.00 99 1019.3
20260506033016 49 104 1.0 2.0 0.13 1.21 1.21 99 1019.0
20260506030332 49 137 0.0 2.0 0.13 1.14 1.14 99 1018.8
20260506030030 49 137 0.0 2.0 0.13 1.14 1.14 99 1018.9
20260506023033 49 137 0.0 1.0 0.10 1.08 1.08 99 1019.1
20260506020346 49 137 0.0 2.0 0.06 1.01 1.01 99 1018.9
20260506020049 49 137 0.0 2.0 0.06 1.01 1.01 99 1018.8
20260506013106 49 137 0.0 1.0 0.03 0.98 0.98 99 1018.5
20260506010318 49 137 0.0 1.0 0.03 0.95 0.95 98 1018.5
20260506010023 49 137 0.0 1.0 0.04 0.95 0.95 98 1018.4
20260506003033 49 152 2.0 3.0 0.20 0.95 0.95 98 1018.1
20260506000332 49 155 2.0 3.0 0.30 0.92 0.92 98 1018.5
20260506000030 49 254 2.0 3.0 0.30 0.91 0.91 98 1019.0
20260505233029 49 253 0.0 2.0 0.29 0.75 0.75 97 1018.2
20260505230323 49 253 0.0 2.0 0.22 0.62 0.62 97 1018.8
20260505230055 49 253 1.0 2.0 0.21 0.60 0.60 97 1018.7
20260505230013 49 253 1.0 2.0 0.21 0.60 0.60 97 1018.7
20260505223056 50 295 1.0 7.0 0.17 0.48 0.46 97 1018.6
20260505220331 50 284 3.0 5.0 0.14 0.41 0.39 96 1018.5
20260505220116 50 275 1.0 3.0 0.15 0.41 0.39 96 1018.3
20260505220034 50 275 1.0 3.0 0.15 0.41 0.39 96 1018.3
20260505213012 51 249 3.0 9.0 0.13 0.31 0.29 96 1018.4
20260505210413 52 284 6.0 11.0 0.19 0.27 0.25 95 1018.3
20260505210110 52 254 4.0 11.0 0.19 0.26 0.24 95 1018.4
20260505203027 55 328 2.0 10.0 0.16 0.18 0.16 95 1017.8
20260505200342 56 282 4.0 6.0 0.06 0.08 0.06 92 1018.0
20260505200104 56 292 4.0 6.0 0.05 0.07 0.05 92 1017.9
20260505193105 58 273 6.0 11.0 0.00 0.02 0.00 85 1017.9
20260505190313 60 308 7.0 14.0 0.00 0.02 0.00 81 1017.7
20260505190058 60 280 9.0 14.0 0.00 0.02 0.00 81 1017.7
20260505183033 60 324 7.0 14.0 0.00 0.02 0.00 83 1017.9
20260505180325 61 273 7.0 14.0 0.00 0.02 0.00 82 1017.7
20260505180048 61 289 5.0 14.0 0.00 0.02 0.00 81 1017.7
20260505173022 62 303 7.0 13.0 0.00 0.02 0.00 79 1017.4
20260505170317 63 316 10.0 17.0 0.00 0.02 0.00 76 1017.5
20260505170055 63 321 9.0 17.0 0.00 0.02 0.00 76 1017.4
20260505163025 67 276 10.0 21.0 0.00 0.02 0.00 69 1016.8
20260505160347 67 303 8.0 15.0 0.00 0.02 0.00 68 1016.7
20260505160105 67 266 7.0 14.0 0.00 0.02 0.00 68 1016.7
20260505153042 69 302 6.0 15.0 0.00 0.02 0.00 64 1015.7
20260505150314 66 263 9.0 15.0 0.00 0.02 0.00 67 1016.4
20260505140430 66 231 8.0 18.0 0.00 0.02 0.00 70 1015.3
20260505140327 66 231 8.0 18.0 0.00 0.02 0.00 70 1015.3
20260505123053 65 210 9.0 18.0 0.00 0.02 0.00 65 1014.5
20260505120408 66 234 5.0 12.0 0.00 0.02 0.00 66 1014.3
20260505120022 66 252 6.0 12.0 0.00 0.02 0.00 65 1014.2
20260505113105 66 272 8.0 17.0 0.00 0.02 0.00 64 1014.3
20260505113023 66 272 8.0 17.0 0.00 0.02 0.00 64 1014.3